Time,TemperatureF,DewpointF,PressureIn,WindDirection,WindDirectionDegrees,WindSpeedMPH,WindSpeedGustMPH,Humidity,HourlyPrecipIn,Conditions,Clouds,dailyrainin,SolarRadiationWatts/m^2,SoftwareType,DateUTC
2015-05-25 00:01:00,61.2,47.6,30.18,NW,309,0.0,0.0,61,0.00,FEW,BKN,0.00,0.0,WeatherDisplay:10.37,2015-05-25 04:01:00,
2015-05-25 00:06:00,61.2,47.6,30.18,NW,309,0.0,0.0,61,0.00,FEW,BKN,0.00,0.0,WeatherDisplay:10.37,2015-05-25 04:06:00,
2015-05-25 00:11:00,61.0,47.9,30.18,NW,309,0.0,0.0,62,0.00,SCT,BKN,0.00,0.0,WeatherDisplay:10.37,2015-05-25 04:11:00,
2015-05-25 00:16:00,61.0,47.9,30.18,NW,309,0.0,0.0,62,0.00,SCT,BKN,0.00,0.0,WeatherDisplay:10.37,2015-05-25 04:16:00,
2015-05-25 00:21:00,61.0,47.9,30.18,NW,309,0.0,0.0,62,0.00,OVC,BKN,0.00,0.0,WeatherDisplay:10.37,2015-05-25 04:21:00,
2015-05-25 00:26:00,61.0,47.4,30.18,NW,304,0.0,0.0,61,0.00,OVC,BKN,0.00,0.0,WeatherDisplay:10.37,2015-05-25 04:26:00,
2015-05-25 00:31:00,61.2,48.1,30.17,NW,304,0.0,0.0,62,0.00,OVC,BKN,0.00,0.0,WeatherDisplay:10.37,2015-05-25 04:31:00,
2015-05-25 00:36:00,61.3,48.2,30.17,NW,304,0.0,0.0,62,0.00,OVC,BKN,0.00,0.0,WeatherDisplay:10.37,2015-05-25 04:36:00,
2015-05-25 00:41:00,61.5,48.8,30.17,NW,304,0.0,0.0,63,0.00,OVC,BKN,0.00,0.0,WeatherDisplay:10.37,2015-05-25 04:41:00,
2015-05-25 00:46:00,61.6,49.3,30.17,NW,304,0.0,0.0,64,0.00,OVC,BKN,0.00,0.0,WeatherDisplay:10.37,2015-05-25 04:46:00,
2015-05-25 00:51:00,61.6,48.9,30.17,NW,304,0.0,0.0,63,0.00,BKN,,0.00,0.0,WeatherDisplay:10.37,2015-05-25 04:51:00,
2015-05-25 00:56:00,61.6,48.9,30.17,NW,304,0.0,0.0,63,0.00,BKN,,0.00,0.0,WeatherDisplay:10.37,2015-05-25 04:56:00,
2015-05-25 01:01:00,61.6,49.3,30.17,NW,304,0.0,0.0,64,0.00,BKN,,0.00,0.0,WeatherDisplay:10.37,2015-05-25 05:01:00,
2015-05-25 01:06:00,61.5,49.2,30.17,NW,304,0.4,2.3,64,0.00,BKN,,0.00,0.0,WeatherDisplay:10.37,2015-05-25 05:06:00,
2015-05-25 01:11:00,61.5,49.2,30.17,West,281,0.0,0.0,64,0.00,BKN,,0.00,0.0,WeatherDisplay:10.37,2015-05-25 05:11:00,
2015-05-25 01:16:00,61.3,49.0,30.17,West,281,0.1,1.2,64,0.00,OVC,BKN,0.00,0.0,WeatherDisplay:10.37,2015-05-25 05:16:00,
2015-05-25 01:21:00,61.2,49.3,30.17,West,281,0.0,0.0,65,0.00,OVC,BKN,0.00,0.0,WeatherDisplay:10.37,2015-05-25 05:21:00,
2015-05-25 01:26:00,61.2,49.3,30.17,West,281,0.0,0.0,65,0.00,FEW,BKN,0.00,0.0,WeatherDisplay:10.37,2015-05-25 05:26:00,
2015-05-25 01:31:00,61.0,49.6,30.17,West,281,0.0,0.0,66,0.00,SCT,BKN,0.00,0.0,WeatherDisplay:10.37,2015-05-25 05:31:00,
2015-05-25 01:36:00,60.9,49.5,30.17,West,281,0.0,0.0,66,0.00,SCT,BKN,0.00,0.0,WeatherDisplay:10.37,2015-05-25 05:36:00,
2015-05-25 01:41:00,60.7,49.3,30.18,West,281,0.0,0.0,66,0.00,CLR,BKN,0.00,0.0,WeatherDisplay:10.37,2015-05-25 05:41:00,
2015-05-25 01:46:00,60.5,49.1,30.17,West,281,0.0,0.0,66,0.00,BKN,,0.00,0.0,WeatherDisplay:10.37,2015-05-25 05:46:00,
2015-05-25 01:51:00,60.4,49.4,30.17,West,281,0.0,0.0,67,0.00,OVC,BKN,0.00,0.0,WeatherDisplay:10.37,2015-05-25 05:51:00,
2015-05-25 01:56:00,60.4,49.8,30.17,West,281,0.0,0.0,68,0.00,OVC,BKN,0.00,0.0,WeatherDisplay:10.37,2015-05-25 05:56:00,
2015-05-25 02:01:00,60.2,49.6,30.17,West,281,0.0,0.0,68,0.00,OVC,BKN,0.00,0.0,WeatherDisplay:10.37,2015-05-25 06:01:00,
2015-05-25 02:06:00,60.1,49.5,30.17,West,281,0.0,2.3,68,0.00,OVC,BKN,0.00,0.0,WeatherDisplay:10.37,2015-05-25 06:06:00,
2015-05-25 02:11:00,60.1,49.5,30.17,West,281,0.0,0.0,68,0.00,OVC,BKN,0.00,0.0,WeatherDisplay:10.37,2015-05-25 06:11:00,
2015-05-25 02:21:00,60.1,49.1,30.17,West,281,0.0,0.0,67,0.00,OVC,BKN,0.00,0.0,WeatherDisplay:10.37,2015-05-25 06:21:00,
2015-05-25 02:26:00,59.9,48.9,30.17,West,281,0.0,0.0,67,0.00,OVC,BKN,0.00,0.0,WeatherDisplay:10.37,2015-05-25 06:26:00,
2015-05-25 02:31:00,60.1,49.1,30.17,West,281,0.0,0.0,67,0.00,OVC,BKN,0.00,0.0,WeatherDisplay:10.37,2015-05-25 06:31:00,
2015-05-25 02:36:00,60.1,49.1,30.17,West,281,0.0,0.0,67,0.00,OVC,BKN,0.00,0.0,WeatherDisplay:10.37,2015-05-25 06:36:00,
2015-05-25 02:41:00,60.2,49.6,30.17,West,281,0.0,0.0,68,0.00,OVC,BKN,0.00,0.0,WeatherDisplay:10.37,2015-05-25 06:41:00,
2015-05-25 02:46:00,60.2,50.0,30.17,West,281,0.0,0.0,69,0.00,OVC,BKN,0.00,0.0,WeatherDisplay:10.37,2015-05-25 06:46:00,
2015-05-25 02:51:00,60.4,50.2,30.17,West,281,0.0,0.0,69,0.00,OVC,BKN,0.00,0.0,WeatherDisplay:10.37,2015-05-25 06:51:00,
2015-05-25 02:56:00,60.4,50.2,30.17,West,281,0.0,0.0,69,0.00,OVC,BKN,0.00,0.0,WeatherDisplay:10.37,2015-05-25 06:56:00,
2015-05-25 03:01:00,60.4,50.2,30.17,West,281,0.0,0.0,69,0.00,OVC,BKN,0.00,0.0,WeatherDisplay:10.37,2015-05-25 07:01:00,
2015-05-25 03:06:00,60.4,50.6,30.17,West,281,0.0,0.0,70,0.00,OVC,BKN,0.00,0.0,WeatherDisplay:10.37,2015-05-25 07:06:00,
2015-05-25 03:11:00,60.4,50.2,30.17,West,281,0.0,0.0,69,0.00,OVC,BKN,0.00,0.0,WeatherDisplay:10.37,2015-05-25 07:11:00,
2015-05-25 03:21:00,60.2,49.6,30.17,West,281,0.0,0.0,68,0.00,OVC,BKN,0.00,0.0,WeatherDisplay:10.37,2015-05-25 07:21:00,
2015-05-25 03:26:00,60.4,51.0,30.17,West,281,0.0,0.0,71,0.00,OVC,BKN,0.00,0.0,WeatherDisplay:10.37,2015-05-25 07:26:00,
2015-05-25 03:31:00,60.4,50.6,30.17,West,281,0.0,0.0,70,0.00,OVC,BKN,0.00,0.0,WeatherDisplay:10.37,2015-05-25 07:31:00,
2015-05-25 03:36:00,60.4,51.3,30.17,West,281,0.0,0.0,72,0.00,OVC,BKN,0.00,0.0,WeatherDisplay:10.37,2015-05-25 07:36:00,
2015-05-25 03:41:00,60.2,51.1,30.17,West,281,0.0,0.0,72,0.00,OVC,BKN,0.00,0.0,WeatherDisplay:10.37,2015-05-25 07:41:00,
2015-05-25 03:46:00,60.1,51.0,30.17,West,281,0.0,0.0,72,0.00,OVC,BKN,0.00,0.0,WeatherDisplay:10.37,2015-05-25 07:46:00,
2015-05-25 03:51:00,60.1,51.0,30.17,West,281,0.0,0.0,72,0.00,FEW,BKN,0.00,0.0,WeatherDisplay:10.37,2015-05-25 07:51:00,
2015-05-25 03:56:00,59.9,50.8,30.17,West,281,0.0,0.0,72,0.00,SCT,BKN,0.00,0.0,WeatherDisplay:10.37,2015-05-25 07:56:00,
2015-05-25 04:01:00,59.8,50.8,30.17,West,281,0.0,0.0,72,0.00,SCT,BKN,0.00,0.0,WeatherDisplay:10.37,2015-05-25 08:01:00,
2015-05-25 04:06:00,59.6,50.9,30.17,West,281,0.0,0.0,73,0.00,BKN,,0.00,0.0,WeatherDisplay:10.37,2015-05-25 08:06:00,
2015-05-25 04:11:00,59.6,50.9,30.17,West,281,0.0,0.0,73,0.00,BKN,,0.00,0.0,WeatherDisplay:10.37,2015-05-25 08:11:00,
2015-05-25 04:16:00,59.5,50.5,30.17,West,281,0.0,0.0,72,0.00,BKN,,0.00,0.0,WeatherDisplay:10.37,2015-05-25 08:16:00,
2015-05-25 04:21:00,59.5,50.1,30.17,West,281,0.0,0.0,71,0.00,BKN,,0.00,0.0,WeatherDisplay:10.37,2015-05-25 08:21:00,
2015-05-25 04:26:00,59.5,50.1,30.17,West,281,0.0,0.0,71,0.00,OVC,BKN,0.00,0.0,WeatherDisplay:10.37,2015-05-25 08:26:00,
2015-05-25 04:31:00,59.3,49.9,30.16,West,281,0.0,0.0,71,0.00,OVC,BKN,0.00,0.0,WeatherDisplay:10.37,2015-05-25 08:31:00,
2015-05-25 04:36:00,59.3,49.9,30.16,West,281,0.0,0.0,71,0.00,OVC,BKN,0.00,0.0,WeatherDisplay:10.37,2015-05-25 08:36:00,
2015-05-25 04:41:00,59.3,49.9,30.16,West,281,0.0,0.0,71,0.00,OVC,BKN,0.00,0.0,WeatherDisplay:10.37,2015-05-25 08:41:00,
2015-05-25 04:46:00,59.3,49.9,30.16,West,279,0.1,1.2,71,0.00,OVC,BKN,0.00,0.0,WeatherDisplay:10.37,2015-05-25 08:46:00,
2015-05-25 04:51:00,59.3,49.9,30.16,West,279,0.0,0.0,71,0.00,OVC,BKN,0.00,0.0,WeatherDisplay:10.37,2015-05-25 08:51:00,
2015-05-25 04:56:00,59.5,50.5,30.16,West,279,0.0,0.0,72,0.00,BKN,,0.00,0.0,WeatherDisplay:10.37,2015-05-25 08:56:00,
2015-05-25 05:01:00,59.5,50.5,30.16,West,279,0.0,0.0,72,0.00,BKN,,0.00,0.0,WeatherDisplay:10.37,2015-05-25 09:01:00,
2015-05-25 05:06:00,59.3,49.9,30.16,West,279,0.0,0.0,71,0.00,OVC,BKN,0.00,0.0,WeatherDisplay:10.37,2015-05-25 09:06:00,
2015-05-25 05:11:00,59.3,50.3,30.16,West,279,0.0,0.0,72,0.00,OVC,BKN,0.00,0.0,WeatherDisplay:10.37,2015-05-25 09:11:00,
2015-05-25 05:16:00,59.3,50.3,30.16,West,279,0.0,0.0,72,0.00,OVC,BKN,0.00,0.0,WeatherDisplay:10.37,2015-05-25 09:16:00,
2015-05-25 05:21:00,59.2,50.2,30.16,West,279,0.0,0.0,72,0.00,OVC,BKN,0.00,0.0,WeatherDisplay:10.37,2015-05-25 09:21:00,
2015-05-25 05:26:00,59.2,50.2,30.16,West,279,0.0,0.0,72,0.00,OVC,BKN,0.00,0.0,WeatherDisplay:10.37,2015-05-25 09:26:00,
2015-05-25 05:31:00,59.2,50.2,30.16,West,279,0.0,0.0,72,0.00,OVC,BKN,0.00,0.0,WeatherDisplay:10.37,2015-05-25 09:31:00,
2015-05-25 05:36:00,59.0,50.4,30.16,West,279,0.0,0.0,73,0.00,OVC,BKN,0.00,0.0,WeatherDisplay:10.37,2015-05-25 09:36:00,
2015-05-25 05:41:00,59.0,50.4,30.16,West,279,0.0,0.0,73,0.00,OVC,BKN,0.00,0.0,WeatherDisplay:10.37,2015-05-25 09:41:00,
2015-05-25 05:46:00,59.0,50.4,30.16,West,279,0.0,0.0,73,0.00,OVC,BKN,0.00,5.0,WeatherDisplay:10.37,2015-05-25 09:46:00,
2015-05-25 05:51:00,58.9,50.3,30.16,West,279,0.0,0.0,73,0.00,OVC,BKN,0.00,9.0,WeatherDisplay:10.37,2015-05-25 09:51:00,
2015-05-25 05:56:00,58.9,50.3,30.16,West,279,0.1,1.2,73,0.00,OVC,BKN,0.00,9.0,WeatherDisplay:10.37,2015-05-25 09:56:00,
2015-05-25 06:06:00,58.7,50.1,30.15,West,279,1.1,3.5,73,0.00,BKN,,0.00,12.0,WeatherDisplay:10.37,2015-05-25 10:06:00,
2015-05-25 06:11:00,58.7,50.4,30.15,West,279,0.3,1.2,74,0.00,BKN,,0.00,16.0,WeatherDisplay:10.37,2015-05-25 10:11:00,
2015-05-25 06:16:00,58.7,50.4,30.15,SSW,192,0.7,2.3,74,0.00,BKN,,0.00,19.0,WeatherDisplay:10.37,2015-05-25 10:16:00,
2015-05-25 06:21:00,58.9,50.6,30.15,SSW,192,1.2,2.3,74,0.00,BKN,,0.00,23.0,WeatherDisplay:10.37,2015-05-25 10:21:00,
2015-05-25 06:26:00,58.9,51.0,30.16,SSW,192,0.0,3.5,75,0.00,BKN,,0.00,21.0,WeatherDisplay:10.37,2015-05-25 10:26:00,
2015-05-25 06:31:00,59.0,50.7,30.16,SSW,192,0.5,2.3,74,0.00,BKN,,0.00,23.0,WeatherDisplay:10.37,2015-05-25 10:31:00,
2015-05-25 06:36:00,59.0,50.7,30.16,SSW,192,0.5,2.0,74,0.00,BKN,,0.00,28.0,WeatherDisplay:10.37,2015-05-25 10:36:00,
2015-05-25 06:41:00,59.0,50.7,30.16,SSW,192,1.2,3.0,74,0.00,BKN,,0.00,26.0,WeatherDisplay:10.37,2015-05-25 10:41:00,
2015-05-25 06:46:00,59.2,50.9,30.16,SSW,192,0.5,3.5,74,0.00,BKN,,0.00,26.0,WeatherDisplay:10.37,2015-05-25 10:46:00,
2015-05-25 06:51:00,59.2,50.9,30.16,SSW,192,0.8,2.3,74,0.00,BKN,,0.00,39.0,WeatherDisplay:10.37,2015-05-25 10:51:00,
2015-05-25 06:56:00,59.2,51.3,30.16,SSW,192,0.8,3.0,75,0.00,BKN,,0.00,42.0,WeatherDisplay:10.37,2015-05-25 10:56:00,
2015-05-25 07:01:00,59.3,51.4,30.16,SSW,192,0.2,2.0,75,0.00,BKN,,0.00,42.0,WeatherDisplay:10.37,2015-05-25 11:01:00,
2015-05-25 07:06:00,59.3,51.4,30.16,SSW,192,0.3,2.3,75,0.00,BKN,,0.00,47.0,WeatherDisplay:10.37,2015-05-25 11:06:00,
2015-05-25 07:11:00,59.5,51.6,30.15,South,191,1.4,4.0,75,0.00,BKN,,0.00,62.0,WeatherDisplay:10.37,2015-05-25 11:11:00,
2015-05-25 07:16:00,59.5,51.6,30.15,South,182,0.8,3.5,75,0.00,BKN,,0.00,65.0,WeatherDisplay:10.37,2015-05-25 11:16:00,
2015-05-25 07:21:00,59.8,51.9,30.15,South,182,0.0,1.2,75,0.00,BKN,,0.00,65.0,WeatherDisplay:10.37,2015-05-25 11:21:00,
2015-05-25 07:26:00,59.8,51.9,30.15,South,182,0.6,3.0,75,0.00,BKN,,0.00,70.0,WeatherDisplay:10.37,2015-05-25 11:26:00,
2015-05-25 07:31:00,59.9,52.0,30.16,South,182,0.0,0.0,75,0.00,BKN,,0.00,74.0,WeatherDisplay:10.37,2015-05-25 11:31:00,
2015-05-25 07:36:00,60.1,52.1,30.16,South,182,0.6,3.5,75,0.00,BKN,,0.00,83.0,WeatherDisplay:10.37,2015-05-25 11:36:00,
2015-05-25 07:41:00,60.2,52.6,30.15,South,182,1.1,3.5,76,0.00,BKN,,0.00,111.0,WeatherDisplay:10.37,2015-05-25 11:41:00,
2015-05-25 07:46:00,60.4,52.4,30.16,South,180,1.4,3.5,75,0.00,BKN,,0.00,155.0,WeatherDisplay:10.37,2015-05-25 11:46:00,
2015-05-25 07:51:00,61.2,52.8,30.16,South,180,0.2,2.3,74,0.00,BKN,,0.00,174.0,WeatherDisplay:10.37,2015-05-25 11:51:00,
2015-05-25 07:56:00,62.1,53.7,30.16,South,180,0.4,2.3,74,0.00,BKN,,0.00,179.0,WeatherDisplay:10.37,2015-05-25 11:56:00,
2015-05-25 08:01:00,62.6,53.8,30.16,South,180,0.3,2.3,73,0.00,-RA,BKN,0.00,190.0,WeatherDisplay:10.37,2015-05-25 12:01:00,
2015-05-25 08:06:00,62.9,53.0,30.16,South,178,1.0,3.5,70,0.00,-RA,BKN,0.00,188.0,WeatherDisplay:10.37,2015-05-25 12:06:00,
2015-05-25 08:11:00,63.1,53.5,30.16,South,170,1.4,3.5,71,0.00,-RA,BKN,0.00,192.0,WeatherDisplay:10.37,2015-05-25 12:11:00,
2015-05-25 08:16:00,63.2,53.3,30.16,South,173,2.8,5.8,70,0.00,-RA,BKN,0.00,221.0,WeatherDisplay:10.37,2015-05-25 12:16:00,
2015-05-25 08:21:00,63.4,53.4,30.16,South,173,0.2,2.3,70,0.00,-RA,BKN,0.00,260.0,WeatherDisplay:10.37,2015-05-25 12:21:00,
2015-05-25 08:26:00,63.7,53.7,30.16,South,171,1.3,4.6,70,0.00,-RA,BKN,0.00,220.0,WeatherDisplay:10.37,2015-05-25 12:26:00,
2015-05-25 08:31:00,63.9,53.9,30.16,SSE,167,2.0,4.0,70,0.00,-RA,BKN,0.00,206.0,WeatherDisplay:10.37,2015-05-25 12:31:00,
2015-05-25 08:36:00,63.7,53.7,30.16,SSE,163,1.2,4.0,70,0.00,-RA,BKN,0.00,221.0,WeatherDisplay:10.37,2015-05-25 12:36:00,
2015-05-25 08:41:00,63.7,54.5,30.16,SSE,164,0.4,2.3,72,0.00,-RA,BKN,0.00,285.0,WeatherDisplay:10.37,2015-05-25 12:41:00,
2015-05-25 08:46:00,64.0,54.4,30.16,SSE,163,0.4,2.3,71,0.00,-RA,BKN,0.00,253.0,WeatherDisplay:10.37,2015-05-25 12:46:00,
2015-05-25 08:51:00,64.2,55.0,30.16,SSE,162,0.0,1.0,72,0.00,-RA,BKN,0.00,304.0,WeatherDisplay:10.37,2015-05-25 12:51:00,
2015-05-25 08:56:00,64.7,55.1,30.16,South,177,0.1,2.3,71,0.00,-RA,BKN,0.00,476.0,WeatherDisplay:10.37,2015-05-25 12:56:00,
2015-05-25 09:01:00,65.6,54.3,30.16,SSE,161,1.7,5.8,67,0.00,BKN,,0.00,380.0,WeatherDisplay:10.37,2015-05-25 13:01:00,
2015-05-25 09:06:00,65.6,55.2,30.16,South,178,1.1,3.0,69,0.00,BKN,,0.00,279.0,WeatherDisplay:10.37,2015-05-25 13:06:00,
2015-05-25 09:11:00,65.8,55.7,30.16,SE,138,1.5,4.0,70,0.00,BKN,,0.00,522.0,WeatherDisplay:10.37,2015-05-25 13:11:00,
2015-05-25 09:16:00,66.6,55.7,30.16,South,177,1.1,4.0,68,0.00,BKN,,0.00,615.0,WeatherDisplay:10.37,2015-05-25 13:16:00,
2015-05-25 09:21:00,67.4,56.1,30.16,SSE,166,1.9,6.0,67,0.00,BKN,,0.00,313.0,WeatherDisplay:10.37,2015-05-25 13:21:00,
2015-05-25 09:26:00,67.4,56.1,30.16,SSE,161,2.2,9.2,67,0.00,BKN,,0.00,733.0,WeatherDisplay:10.37,2015-05-25 13:26:00,
2015-05-25 09:36:00,69.1,55.5,30.16,SSW,201,2.9,5.0,62,0.00,BKN,,0.00,937.0,WeatherDisplay:10.37,2015-05-25 13:36:00,
2015-05-25 09:41:00,69.6,57.7,30.15,SW,217,1.4,6.0,66,0.00,BKN,,0.00,860.0,WeatherDisplay:10.37,2015-05-25 13:41:00,
2015-05-25 09:46:00,69.6,57.3,30.15,SW,232,1.7,4.6,65,0.00,BKN,,0.00,478.0,WeatherDisplay:10.37,2015-05-25 13:46:00,
2015-05-25 09:51:00,69.6,56.9,30.15,SW,233,3.2,6.0,64,0.00,BKN,,0.00,445.0,WeatherDisplay:10.37,2015-05-25 13:51:00,
2015-05-25 09:56:00,69.8,58.8,30.15,SW,228,1.1,5.0,68,0.00,BKN,,0.00,501.0,WeatherDisplay:10.37,2015-05-25 13:56:00,
2015-05-25 10:01:00,70.1,57.4,30.15,SSW,213,0.2,1.2,64,0.00,FEW,BKN,0.00,501.0,WeatherDisplay:10.37,2015-05-25 14:01:00,
2015-05-25 10:06:00,70.6,57.8,30.14,SSW,210,1.6,4.0,64,0.00,FEW,BKN,0.00,548.0,WeatherDisplay:10.37,2015-05-25 14:06:00,
2015-05-25 10:11:00,70.9,58.5,30.15,SW,220,0.5,4.0,65,0.00,FEW,BKN,0.00,582.0,WeatherDisplay:10.37,2015-05-25 14:11:00,
2015-05-25 10:16:00,71.1,58.3,30.14,SSW,210,1.6,4.0,64,0.00,FEW,BKN,0.00,446.0,WeatherDisplay:10.37,2015-05-25 14:16:00,
2015-05-25 10:21:00,72.3,58.5,30.14,South,185,2.1,5.0,62,0.00,FEW,BKN,0.00,884.0,WeatherDisplay:10.37,2015-05-25 14:21:00,
2015-05-25 10:26:00,72.7,58.9,30.14,South,181,2.9,6.0,62,0.00,FEW,BKN,0.00,768.0,WeatherDisplay:10.37,2015-05-25 14:26:00,
2015-05-25 10:31:00,73.2,58.9,30.14,SSW,209,2.2,6.9,61,0.00,FEW,BKN,0.00,816.0,WeatherDisplay:10.37,2015-05-25 14:31:00,
2015-05-25 10:36:00,73.3,58.6,30.13,SW,221,1.2,5.8,60,0.00,FEW,BKN,0.00,807.0,WeatherDisplay:10.37,2015-05-25 14:36:00,
2015-05-25 10:41:00,73.9,60.1,30.14,SSW,208,1.3,9.0,62,0.00,FEW,BKN,0.00,417.0,WeatherDisplay:10.37,2015-05-25 14:41:00,
2015-05-25 10:46:00,74.2,58.5,30.13,SW,219,3.2,8.0,58,0.00,FEW,BKN,0.00,742.0,WeatherDisplay:10.37,2015-05-25 14:46:00,
2015-05-25 10:51:00,74.2,58.9,30.13,SW,220,1.8,6.0,59,0.00,FEW,BKN,0.00,898.0,WeatherDisplay:10.37,2015-05-25 14:51:00,
2015-05-25 10:56:00,74.4,59.6,30.13,SW,230,1.5,5.0,60,0.00,FEW,BKN,0.00,621.0,WeatherDisplay:10.37,2015-05-25 14:56:00,
2015-05-25 11:01:00,74.7,60.8,30.13,SW,217,2.4,8.1,62,0.00,BKN,,0.00,621.0,WeatherDisplay:10.37,2015-05-25 15:01:00,
2015-05-25 11:06:00,75.4,59.6,30.12,South,175,1.5,6.0,58,0.00,BKN,,0.00,895.0,WeatherDisplay:10.37,2015-05-25 15:06:00,
2015-05-25 11:11:00,74.9,58.6,30.13,SW,215,2.2,7.0,57,0.00,BKN,,0.00,526.0,WeatherDisplay:10.37,2015-05-25 15:11:00,
2015-05-25 11:16:00,74.6,57.9,30.12,SSW,198,2.7,5.8,56,0.00,BKN,,0.00,510.0,WeatherDisplay:10.37,2015-05-25 15:16:00,
2015-05-25 11:21:00,74.6,58.8,30.12,SW,218,2.7,10.4,58,0.00,BKN,,0.00,454.0,WeatherDisplay:10.37,2015-05-25 15:21:00,
2015-05-25 11:26:00,74.2,58.0,30.12,South,181,2.7,6.0,57,0.00,BKN,,0.00,371.0,WeatherDisplay:10.37,2015-05-25 15:26:00,
2015-05-25 11:31:00,74.7,58.9,30.12,SSW,207,3.0,10.4,58,0.00,BKN,,0.00,896.0,WeatherDisplay:10.37,2015-05-25 15:31:00,
2015-05-25 11:36:00,76.3,61.4,30.12,WSW,247,2.0,6.0,60,0.00,BKN,,0.00,860.0,WeatherDisplay:10.37,2015-05-25 15:36:00,
2015-05-25 11:41:00,77.4,60.5,30.11,South,186,1.3,3.5,56,0.00,BKN,,0.00,875.0,WeatherDisplay:10.37,2015-05-25 15:41:00,
2015-05-25 11:46:00,77.6,58.0,30.11,South,182,5.3,13.0,51,0.00,BKN,,0.00,881.0,WeatherDisplay:10.37,2015-05-25 15:46:00,
2015-05-25 11:51:00,77.9,57.8,30.11,SE,138,5.2,9.0,50,0.00,BKN,,0.00,886.0,WeatherDisplay:10.37,2015-05-25 15:51:00,
2015-05-25 11:56:00,78.1,60.1,30.11,SW,215,5.0,8.1,54,0.00,BKN,,0.00,896.0,WeatherDisplay:10.37,2015-05-25 15:56:00,
2015-05-25 12:01:00,78.3,59.2,30.11,SSW,198,2.1,5.0,52,0.00,CLR,BKN,0.00,916.0,WeatherDisplay:10.37,2015-05-25 16:01:00,
2015-05-25 12:06:00,78.5,59.4,30.11,West,266,3.6,9.2,52,0.00,SCT,BKN,0.00,918.0,WeatherDisplay:10.37,2015-05-25 16:06:00,
2015-05-25 12:11:00,79.4,59.1,30.10,SW,214,5.1,15.0,50,0.00,SCT,BKN,0.00,965.0,WeatherDisplay:10.37,2015-05-25 16:11:00,
2015-05-25 12:16:00,79.4,60.8,30.10,SW,219,3.3,9.0,53,0.00,SCT,BKN,0.00,990.0,WeatherDisplay:10.37,2015-05-25 16:16:00,
2015-05-25 12:21:00,78.5,57.2,30.10,WSW,252,4.9,12.0,48,0.00,SCT,BKN,0.00,519.0,WeatherDisplay:10.37,2015-05-25 16:21:00,
2015-05-25 12:26:00,77.7,57.0,30.10,West,279,5.6,10.4,49,0.00,SCT,BKN,0.00,390.0,WeatherDisplay:10.37,2015-05-25 16:26:00,
2015-05-25 12:31:00,76.7,57.2,30.10,SW,235,2.1,12.7,51,0.00,SCT,BKN,0.00,420.0,WeatherDisplay:10.37,2015-05-25 16:31:00,
2015-05-25 12:36:00,76.5,57.6,30.09,West,273,3.5,7.0,52,0.00,SCT,BKN,0.00,459.0,WeatherDisplay:10.37,2015-05-25 16:36:00,
2015-05-25 12:41:00,77.0,59.1,30.09,SW,224,5.9,13.0,54,0.00,SCT,BKN,0.00,512.0,WeatherDisplay:10.37,2015-05-25 16:41:00,
2015-05-25 12:46:00,77.4,57.9,30.09,South,173,3.1,11.5,51,0.00,SCT,BKN,0.00,496.0,WeatherDisplay:10.37,2015-05-25 16:46:00,
2015-05-25 12:51:00,77.7,57.6,30.09,SW,232,2.8,9.2,50,0.00,SCT,BKN,0.00,538.0,WeatherDisplay:10.37,2015-05-25 16:51:00,
2015-05-25 12:56:00,78.5,59.4,30.09,SW,232,3.3,5.0,52,0.00,SCT,BKN,0.00,538.0,WeatherDisplay:10.37,2015-05-25 16:56:00,
2015-05-25 13:01:00,78.5,58.3,30.08,SW,216,2.5,6.0,50,0.00,CLR,BKN,0.00,445.0,WeatherDisplay:10.37,2015-05-25 17:01:00,
2015-05-25 13:06:00,77.6,56.9,30.08,South,176,5.1,11.0,49,0.00,CLR,BKN,0.00,390.0,WeatherDisplay:10.37,2015-05-25 17:06:00,
2015-05-25 13:11:00,79.2,60.6,30.08,SW,225,3.0,8.1,53,0.00,CLR,BKN,0.00,1063.0,WeatherDisplay:10.37,2015-05-25 17:11:00,
2015-05-25 13:16:00,80.5,58.4,30.08,SSW,205,5.0,11.5,47,0.00,BKN,,0.00,940.0,WeatherDisplay:10.37,2015-05-25 17:16:00,
2015-05-25 13:21:00,80.3,57.0,30.08,SW,217,4.8,10.4,45,0.00,CLR,BKN,0.00,940.0,WeatherDisplay:10.37,2015-05-25 17:21:00,
2015-05-25 13:26:00,80.3,58.2,30.07,SSW,208,8.0,12.0,47,0.00,CLR,BKN,0.00,953.0,WeatherDisplay:10.37,2015-05-25 17:26:00,
2015-05-25 13:31:00,80.3,60.0,30.07,SSW,202,4.6,8.1,50,0.00,CLR,BKN,0.00,953.0,WeatherDisplay:10.37,2015-05-25 17:31:00,
2015-05-25 13:36:00,80.3,57.6,30.07,SSW,195,4.2,12.0,46,0.00,CLR,BKN,0.00,879.0,WeatherDisplay:10.37,2015-05-25 17:36:00,
2015-05-25 13:41:00,81.1,57.7,30.07,SSW,212,2.6,8.1,45,0.00,CLR,BKN,0.00,904.0,WeatherDisplay:10.37,2015-05-25 17:41:00,
2015-05-25 13:46:00,81.1,56.5,30.06,WSW,257,4.6,10.4,43,0.00,CLR,BKN,0.00,944.0,WeatherDisplay:10.37,2015-05-25 17:46:00,
2015-05-25 13:51:00,81.4,59.2,30.06,SSW,193,5.9,9.2,47,0.00,CLR,BKN,0.00,909.0,WeatherDisplay:10.37,2015-05-25 17:51:00,
2015-05-25 13:56:00,81.1,57.7,30.06,South,172,4.0,6.9,45,0.00,CLR,BKN,0.00,918.0,WeatherDisplay:10.37,2015-05-25 17:56:00,
2015-05-25 14:01:00,81.1,57.1,30.06,SSE,167,4.1,10.4,44,0.00,CLR,BKN,0.00,926.0,WeatherDisplay:10.37,2015-05-25 18:01:00,
2015-05-25 14:06:00,80.7,57.4,30.06,WSW,242,6.1,13.0,45,0.00,CLR,BKN,0.00,930.0,WeatherDisplay:10.37,2015-05-25 18:06:00,
2015-05-25 14:11:00,80.9,56.3,30.06,SE,127,5.1,9.0,43,0.00,CLR,BKN,0.00,889.0,WeatherDisplay:10.37,2015-05-25 18:11:00,
2015-05-25 14:16:00,81.4,59.2,30.06,WSW,239,1.1,5.8,47,0.00,CLR,BKN,0.00,770.0,WeatherDisplay:10.37,2015-05-25 18:16:00,
2015-05-25 14:21:00,81.2,59.1,30.06,WSW,248,2.8,18.4,47,0.00,CLR,BKN,0.00,951.0,WeatherDisplay:10.37,2015-05-25 18:21:00,
2015-05-25 14:26:00,81.8,60.2,30.05,South,182,2.1,6.0,48,0.00,CLR,BKN,0.00,911.0,WeatherDisplay:10.37,2015-05-25 18:26:00,
2015-05-25 14:31:00,82.4,58.3,30.06,SSW,212,6.2,15.0,44,0.00,CLR,BKN,0.00,891.0,WeatherDisplay:10.37,2015-05-25 18:31:00,
2015-05-25 14:41:00,82.2,56.8,30.05,SSW,213,5.0,11.0,42,0.00,CLR,BKN,0.00,846.0,WeatherDisplay:10.37,2015-05-25 18:41:00,
2015-05-25 14:46:00,82.0,57.3,30.05,SSE,148,6.7,12.0,43,0.00,CLR,BKN,0.00,911.0,WeatherDisplay:10.37,2015-05-25 18:46:00,
2015-05-25 14:51:00,82.4,55.7,30.05,SSW,211,5.2,10.0,40,0.00,CLR,BKN,0.00,907.0,WeatherDisplay:10.37,2015-05-25 18:51:00,
2015-05-25 14:56:00,82.6,57.8,30.05,SSW,202,3.2,6.9,43,0.00,CLR,BKN,0.00,870.0,WeatherDisplay:10.37,2015-05-25 18:56:00,
2015-05-25 15:01:00,82.2,56.2,30.05,SW,227,6.3,11.5,41,0.00,CLR,BKN,0.00,856.0,WeatherDisplay:10.37,2015-05-25 19:01:00,
2015-05-25 15:06:00,82.4,57.7,30.05,SW,229,4.3,19.6,43,0.00,CLR,BKN,0.00,898.0,WeatherDisplay:10.37,2015-05-25 19:06:00,
2015-05-25 15:11:00,82.4,57.7,30.05,SSE,167,3.3,11.5,43,0.00,CLR,BKN,0.00,981.0,WeatherDisplay:10.37,2015-05-25 19:11:00,
2015-05-25 15:16:00,82.0,57.3,30.05,SW,217,2.8,7.0,43,0.00,CLR,BKN,0.00,981.0,WeatherDisplay:10.37,2015-05-25 19:16:00,
2015-05-25 15:21:00,82.6,56.5,30.05,SSE,162,6.9,13.0,41,0.00,CLR,BKN,0.00,942.0,WeatherDisplay:10.37,2015-05-25 19:21:00,
2015-05-25 15:26:00,82.4,58.3,30.05,SSW,205,4.1,10.0,44,0.00,CLR,BKN,0.00,573.0,WeatherDisplay:10.37,2015-05-25 19:26:00,
2015-05-25 15:31:00,82.6,59.1,30.04,West,262,6.9,14.0,45,0.00,CLR,BKN,0.00,918.0,WeatherDisplay:10.37,2015-05-25 19:31:00,
2015-05-25 15:36:00,83.2,55.0,30.04,West,267,6.4,13.0,38,0.00,CLR,BKN,0.00,882.0,WeatherDisplay:10.37,2015-05-25 19:36:00,
2015-05-25 15:41:00,82.8,56.7,30.04,SW,232,3.7,7.0,41,0.00,CLR,BKN,0.00,645.0,WeatherDisplay:10.37,2015-05-25 19:41:00,
2015-05-25 15:46:00,82.8,54.6,30.04,WSW,255,1.7,4.0,38,0.00,CLR,BKN,0.00,1035.0,WeatherDisplay:10.37,2015-05-25 19:46:00,
2015-05-25 15:51:00,83.0,54.8,30.04,West,274,3.1,10.0,38,0.00,CLR,BKN,0.00,531.0,WeatherDisplay:10.37,2015-05-25 19:51:00,
2015-05-25 15:56:00,82.2,56.8,30.04,SSW,208,3.2,7.0,42,0.00,CLR,BKN,0.00,476.0,WeatherDisplay:10.37,2015-05-25 19:56:00,
2015-05-25 16:01:00,82.4,55.0,30.04,South,177,5.2,8.1,39,0.00,FEW,BKN,0.00,798.0,WeatherDisplay:10.37,2015-05-25 20:01:00,
2015-05-25 16:06:00,82.6,56.5,30.04,South,186,4.7,15.0,41,0.00,FEW,BKN,0.00,738.0,WeatherDisplay:10.37,2015-05-25 20:06:00,
2015-05-25 16:11:00,81.8,55.1,30.04,SSW,201,7.3,18.4,40,0.00,FEW,BKN,0.00,596.0,WeatherDisplay:10.37,2015-05-25 20:11:00,
2015-05-25 16:16:00,81.2,55.3,30.04,West,261,5.8,10.4,41,0.00,FEW,BKN,0.00,309.0,WeatherDisplay:10.37,2015-05-25 20:16:00,
2015-05-25 16:21:00,81.4,56.8,30.03,WSW,243,4.4,10.4,43,0.00,FEW,BKN,0.00,557.0,WeatherDisplay:10.37,2015-05-25 20:21:00,
2015-05-25 16:26:00,82.0,57.9,30.03,SW,214,4.1,10.4,44,0.00,FEW,BKN,0.00,772.0,WeatherDisplay:10.37,2015-05-25 20:26:00,
2015-05-25 16:31:00,81.2,57.8,30.03,SSW,207,2.7,7.0,45,0.00,FEW,BKN,0.00,236.0,WeatherDisplay:10.37,2015-05-25 20:31:00,
2015-05-25 16:36:00,81.2,59.1,30.03,SW,215,1.2,5.0,47,0.00,FEW,BKN,0.00,687.0,WeatherDisplay:10.37,2015-05-25 20:36:00,
2015-05-25 16:41:00,81.6,56.3,30.03,SW,230,6.1,11.5,42,0.00,FEW,BKN,0.00,392.0,WeatherDisplay:10.37,2015-05-25 20:41:00,
2015-05-25 16:46:00,80.9,56.3,30.03,SW,226,4.1,9.2,43,0.00,FEW,BKN,0.00,295.0,WeatherDisplay:10.37,2015-05-25 20:46:00,
2015-05-25 16:51:00,80.3,55.1,30.03,SSW,197,2.4,6.9,42,0.00,FEW,BKN,0.00,394.0,WeatherDisplay:10.37,2015-05-25 20:51:00,
2015-05-25 16:56:00,80.5,55.9,30.03,SW,227,1.9,5.8,43,0.00,FEW,BKN,0.00,383.0,WeatherDisplay:10.37,2015-05-25 20:56:00,
2015-05-25 17:01:00,80.3,56.4,30.03,SSW,205,2.3,10.4,44,0.00,CLR,BKN,0.00,253.0,WeatherDisplay:10.37,2015-05-25 21:01:00,
2015-05-25 17:06:00,79.8,55.9,30.03,SW,228,1.6,4.0,44,0.00,CLR,BKN,0.00,197.0,WeatherDisplay:10.37,2015-05-25 21:06:00,
2015-05-25 17:11:00,79.2,57.2,30.03,SW,227,3.4,7.0,47,0.00,CLR,BKN,0.00,192.0,WeatherDisplay:10.37,2015-05-25 21:11:00,
2015-05-25 17:16:00,78.8,59.1,30.03,South,182,4.0,7.0,51,0.00,CLR,BKN,0.00,218.0,WeatherDisplay:10.37,2015-05-25 21:16:00,
2015-05-25 17:21:00,78.6,59.5,30.03,SSE,150,4.4,14.0,52,0.00,CLR,BKN,0.00,287.0,WeatherDisplay:10.37,2015-05-25 21:21:00,
2015-05-25 17:26:00,78.5,59.9,30.03,SSE,163,3.3,8.1,53,0.00,CLR,BKN,0.00,197.0,WeatherDisplay:10.37,2015-05-25 21:26:00,
2015-05-25 17:31:00,78.1,59.6,30.03,South,177,2.2,6.0,53,0.00,CLR,BKN,0.00,120.0,WeatherDisplay:10.37,2015-05-25 21:31:00,
2015-05-25 17:36:00,77.7,59.7,30.03,SW,215,2.4,11.5,54,0.00,CLR,BKN,0.00,120.0,WeatherDisplay:10.37,2015-05-25 21:36:00,
2015-05-25 17:41:00,77.4,60.0,30.03,SSW,196,4.0,10.4,55,0.00,CLR,BKN,0.00,146.0,WeatherDisplay:10.37,2015-05-25 21:41:00,
2015-05-25 17:46:00,77.4,60.5,30.03,SSW,196,3.9,6.9,56,0.00,CLR,BKN,0.00,160.0,WeatherDisplay:10.37,2015-05-25 21:46:00,
2015-05-25 17:51:00,77.0,61.1,30.03,SW,225,5.1,10.4,58,0.00,CLR,BKN,0.00,142.0,WeatherDisplay:10.37,2015-05-25 21:51:00,
2015-05-25 17:56:00,76.8,61.4,30.03,SSE,166,4.4,10.0,59,0.00,CLR,BKN,0.00,113.0,WeatherDisplay:10.37,2015-05-25 21:56:00,
2015-05-25 18:01:00,76.7,61.3,30.03,South,188,4.3,8.1,59,0.00,CLR,BKN,0.00,144.0,WeatherDisplay:10.37,2015-05-25 22:01:00,
2015-05-25 18:06:00,76.5,61.1,30.03,SSW,205,1.3,5.0,59,0.00,CLR,BKN,0.00,135.0,WeatherDisplay:10.37,2015-05-25 22:06:00,
2015-05-25 18:11:00,76.5,62.0,30.03,South,176,3.8,9.2,61,0.00,CLR,BKN,0.00,130.0,WeatherDisplay:10.37,2015-05-25 22:11:00,
2015-05-25 18:16:00,76.5,61.6,30.03,SSW,201,3.0,7.0,60,0.00,CLR,BKN,0.00,120.0,WeatherDisplay:10.37,2015-05-25 22:16:00,
2015-05-25 18:21:00,76.3,62.3,30.03,SSE,153,1.3,6.0,62,0.00,CLR,BKN,0.00,155.0,WeatherDisplay:10.37,2015-05-25 22:21:00,
2015-05-25 18:26:00,76.3,61.9,30.03,South,171,2.8,8.1,61,0.00,CLR,BKN,0.00,163.0,WeatherDisplay:10.37,2015-05-25 22:26:00,
2015-05-25 18:31:00,76.3,61.9,30.03,South,172,5.9,14.0,61,0.00,CLR,BKN,0.00,163.0,WeatherDisplay:10.37,2015-05-25 22:31:00,
2015-05-25 18:36:00,76.1,61.7,30.03,SSE,167,3.1,7.0,61,0.00,CLR,BKN,0.00,144.0,WeatherDisplay:10.37,2015-05-25 22:36:00,
2015-05-25 18:41:00,76.0,62.0,30.03,SE,144,1.9,12.0,62,0.00,CLR,BKN,0.00,102.0,WeatherDisplay:10.37,2015-05-25 22:41:00,
2015-05-25 18:46:00,75.8,61.8,30.03,SW,223,3.5,8.0,62,0.00,CLR,BKN,0.00,86.0,WeatherDisplay:10.37,2015-05-25 22:46:00,
2015-05-25 18:51:00,75.6,60.7,30.03,SSW,199,4.1,8.1,60,0.00,CLR,BKN,0.00,98.0,WeatherDisplay:10.37,2015-05-25 22:51:00,
2015-05-25 18:56:00,75.4,61.5,30.03,South,184,4.6,9.2,62,0.00,CLR,BKN,0.00,104.0,WeatherDisplay:10.37,2015-05-25 22:56:00,
2015-05-25 19:01:00,75.3,60.9,30.02,SSE,159,2.2,7.0,61,0.00,FEW,BKN,0.00,100.0,WeatherDisplay:10.37,2015-05-25 23:01:00,
2015-05-25 19:06:00,75.1,61.2,30.02,SSE,155,1.4,4.6,62,0.00,FEW,BKN,0.00,86.0,WeatherDisplay:10.37,2015-05-25 23:06:00,
2015-05-25 19:11:00,75.1,61.2,30.02,SSE,160,3.1,9.2,62,0.00,FEW,BKN,0.00,81.0,WeatherDisplay:10.37,2015-05-25 23:11:00,
2015-05-25 19:16:00,74.9,61.0,30.02,SSE,147,2.0,5.0,62,0.00,FEW,BKN,0.00,72.0,WeatherDisplay:10.37,2015-05-25 23:16:00,
2015-05-25 19:21:00,74.7,60.8,30.02,SSW,205,3.1,6.9,62,0.00,FEW,BKN,0.00,65.0,WeatherDisplay:10.37,2015-05-25 23:21:00,
2015-05-25 19:26:00,74.7,60.8,30.02,SSW,211,2.4,6.9,62,0.00,FEW,BKN,0.00,62.0,WeatherDisplay:10.37,2015-05-25 23:26:00,
2015-05-25 19:31:00,74.7,60.8,30.02,South,173,0.4,2.3,62,0.00,FEW,BKN,0.00,53.0,WeatherDisplay:10.37,2015-05-25 23:31:00,
2015-05-25 19:36:00,74.6,61.2,30.02,SSW,205,1.6,6.0,63,0.00,FEW,BKN,0.00,44.0,WeatherDisplay:10.37,2015-05-25 23:36:00,
2015-05-25 19:41:00,74.6,61.2,30.02,SSW,207,1.9,6.0,63,0.00,FEW,BKN,0.00,32.0,WeatherDisplay:10.37,2015-05-25 23:41:00,
2015-05-25 19:46:00,74.4,61.0,30.02,SSW,196,0.6,3.5,63,0.00,FEW,BKN,0.00,28.0,WeatherDisplay:10.37,2015-05-25 23:46:00,
2015-05-25 19:51:00,74.2,60.3,30.02,SSE,161,2.1,6.9,62,0.00,FEW,BKN,0.00,25.0,WeatherDisplay:10.37,2015-05-25 23:51:00,
2015-05-25 19:56:00,74.0,60.6,30.02,SSW,196,5.1,10.4,63,0.00,FEW,BKN,0.00,21.0,WeatherDisplay:10.37,2015-05-25 23:56:00,
2015-05-25 20:01:00,73.9,60.5,30.02,SW,221,3.6,7.0,63,0.00,CLR,BKN,0.00,14.0,WeatherDisplay:10.37,2015-05-26 00:01:00,
2015-05-25 20:06:00,73.9,60.5,30.02,SSE,160,1.3,4.6,63,0.00,CLR,BKN,0.00,11.0,WeatherDisplay:10.37,2015-05-26 00:06:00,
2015-05-25 20:11:00,73.7,60.3,30.02,SW,216,2.1,6.0,63,0.00,CLR,BKN,0.00,7.0,WeatherDisplay:10.37,2015-05-26 00:11:00,
2015-05-25 20:16:00,73.5,60.1,30.02,South,188,4.2,7.0,63,0.00,CLR,BKN,0.00,5.0,WeatherDisplay:10.37,2015-05-26 00:16:00,